This is the latest recevied weather packets stored in our database for station/object W1REE. If no packets are shown the sender has not sent any weather packets the latest 10 day(s).
| Time | Temp. | Humidity | Pressure | Rain* | Wind** | Luminosity | Snow |
|---|---|---|---|---|---|---|---|
| 1778032927 | 1.67° C | 97% | 1014.8 hPa | 0 mm | - | 0 W/m² | - |
| 1778032624 | 1.67° C | 97% | 1014.7 hPa | 1.78 mm | - | 0 W/m² | - |
| 1778032321 | 1.67° C | 97% | 1014.5 hPa | 1.78 mm | - | 1 W/m² | - |
| 1778032018 | 1.67° C | 97% | 1014.4 hPa | 1.78 mm | - | 2 W/m² | - |
| 1778031714 | 1.67° C | 97% | 1014.6 hPa | 0 mm | - | 2 W/m² | - |
| 1778031412 | 1.67° C | 97% | 1014.5 hPa | 0 mm | - | 3 W/m² | - |
| 1778031109 | 1.67° C | 97% | 1014.4 hPa | 0 mm | - | 2 W/m² | - |
| 1778030805 | 1.67° C | 97% | 1014.2 hPa | 0 mm | - | 5 W/m² | - |
| 1778030502 | 1.67° C | 97% | 1014.1 hPa | 1.27 mm | - | 5 W/m² | - |
| 1778030199 | 1.67° C | 97% | 1014 hPa | 3.05 mm | - | 5 W/m² | - |
| 1778029895 | 1.67° C | 97% | 1014 hPa | 1.78 mm | - | 5 W/m² | - |
| 1778029594 | 1.67° C | 97% | 1013.9 hPa | 1.27 mm | - | 5 W/m² | - |
| 1778029291 | 1.67° C | 97% | 1013.7 hPa | 1.27 mm | - | 6 W/m² | - |
| 1778028988 | 1.67° C | 97% | 1013.9 hPa | 1.78 mm | - | 7 W/m² | - |
| 1778028684 | 1.67° C | 97% | 1014.1 hPa | 1.78 mm | - | 6 W/m² | - |
| 1778028381 | 1.67° C | 97% | 1014 hPa | 0 mm | - | 8 W/m² | - |
| 1778028078 | 2.22° C | 97% | 1013.9 hPa | 1.78 mm | - | 9 W/m² | - |
| 1778027775 | 2.22° C | 97% | 1014.1 hPa | 1.78 mm | - | 11 W/m² | - |
| 1778027471 | 2.22° C | 97% | 1014.2 hPa | 0 mm | - | 8 W/m² | - |
| 1778027167 | 2.22° C | 97% | 1014.2 hPa | 0 mm | - | 8 W/m² | - |
| 1778026863 | 2.22° C | 97% | 1014.1 hPa | 1.27 mm | - | 8 W/m² | - |
| 1778026559 | 2.22° C | 97% | 1014.1 hPa | 1.27 mm | - | 12 W/m² | - |
| 1778026256 | 2.22° C | 97% | 1014 hPa | 0 mm | - | 12 W/m² | - |
| 1778025954 | 2.22° C | 97% | 1013.6 hPa | 0 mm | - | 10 W/m² | - |
| 1778025651 | 2.22° C | 97% | 1013.5 hPa | 0 mm | - | 11 W/m² | - |
* Rain latest hour (hover to see other rain measurements)
** Current wind speed in m/s (hover to see current wind gust speed)